When you browse on this site, cookies collect data to enhance your experience and personalize the content and advertising you see.
Visit our Privacy Policy to learn more. By continuing to use the site, you agree to this use of cookies and data.
  • In Österreich
  • Länderverzeichnis
  • Für 7 Tage
  • Wassertemperatur
  • Wetterkarte
  • News
  • Widgets
  • user-avatar
    Anmelden

    Stündliche Wetter Plowdiw

    Heute, 28 Mai, Donnerstag

    Zeit Temperatur Niederschläge Wind Luftdruck Luftfeuchtigkeit
    00:00 +9°C° 0 mm 2 m/S 741 mmHg 89%
    01:00 +9°C° 0 mm 2 m/S 741 mmHg 89%
    02:00 +10°C° 0 mm 2 m/S 741 mmHg 88%
    03:00 +9°C° 0 mm 2 m/S 740 mmHg 88%
    04:00 +9°C° 0 mm 2 m/S 740 mmHg 88%
    05:00 +9°C° 0 mm 2 m/S 740 mmHg 88%
    06:00 +12°C° 0 mm 2 m/S 740 mmHg 84%
    07:00 +13°C° 0 mm 2 m/S 740 mmHg 80%
    08:00 +15°C° 0 mm 2 m/S 740 mmHg 75%
    09:00 +16°C° 0.7 mm 2 m/S 740 mmHg 75%
    10:00 +16°C° 0.7 mm 3 m/S 739 mmHg 75%
    11:00 +17°C° 0.7 mm 3 m/S 739 mmHg 74%
    12:00 +17°C° 0.8 mm 3 m/S 739 mmHg 73%
    13:00 +18°C° 0.8 mm 2 m/S 738 mmHg 72%
    14:00 +18°C° 0.8 mm 2 m/S 738 mmHg 71%
    15:00 +18°C° 0.5 mm 2 m/S 738 mmHg 70%
    16:00 +18°C° 0.5 mm 2 m/S 738 mmHg 69%
    17:00 +18°C° 0.5 mm 2 m/S 737 mmHg 68%
    18:00 +17°C° 0.3 mm 2 m/S 737 mmHg 73%
    19:00 +15°C° 0.3 mm 2 m/S 737 mmHg 78%
    20:00 +14°C° 0.3 mm 2 m/S 737 mmHg 84%
    21:00 +13°C° 0 mm 2 m/S 737 mmHg 84%
    22:00 +12°C° 0 mm 2 m/S 738 mmHg 84%
    23:00 +12°C° 0 mm 2 m/S 738 mmHg 85%

    Morgen, 29 Mai, Freitag

    Zeit Temperatur Niederschläge Wind Luftdruck Luftfeuchtigkeit
    00:00 +12°C° 0 mm 2 m/S 738 mmHg 85%
    01:00 +10°C° 0 mm 2 m/S 738 mmHg 86%
    02:00 +10°C° 0 mm 2 m/S 737 mmHg 86%
    03:00 +10°C° 0 mm 2 m/S 737 mmHg 86%
    04:00 +9°C° 0 mm 2 m/S 738 mmHg 87%
    05:00 +9°C° 0 mm 2 m/S 738 mmHg 87%
    06:00 +12°C° 0 mm 2 m/S 738 mmHg 81%
    07:00 +14°C° 0 mm 2 m/S 738 mmHg 75%
    08:00 +16°C° 0 mm 2 m/S 738 mmHg 70%
    09:00 +18°C° 0.1 mm 2 m/S 738 mmHg 64%
    10:00 +19°C° 0.1 mm 3 m/S 738 mmHg 59%
    11:00 +20°C° 0.1 mm 3 m/S 738 mmHg 54%
    12:00 +21°C° 0.3 mm 3 m/S 738 mmHg 53%
    13:00 +21°C° 0.3 mm 3 m/S 737 mmHg 53%
    14:00 +22°C° 0.3 mm 3 m/S 737 mmHg 52%
    15:00 +21°C° 0.5 mm 2 m/S 737 mmHg 57%
    16:00 +21°C° 0.5 mm 2 m/S 737 mmHg 62%
    17:00 +20°C° 0.5 mm 2 m/S 737 mmHg 66%
    18:00 +18°C° 0.5 mm 2 m/S 737 mmHg 72%
    19:00 +16°C° 0.5 mm 1 m/S 736 mmHg 78%
    20:00 +14°C° 0.5 mm 1 m/S 736 mmHg 83%
    21:00 +14°C° 0.2 mm 1 m/S 737 mmHg 84%
    22:00 +13°C° 0.2 mm 2 m/S 737 mmHg 85%
    23:00 +13°C° 0.2 mm 2 m/S 737 mmHg 86%

    übermorgen, 30 Mai, Samstag

    Zeit Temperatur Niederschläge Wind Luftdruck Luftfeuchtigkeit
    00:00 +12°C° 0 mm 2 m/S 737 mmHg 86%
    01:00 +12°C° 0 mm 2 m/S 737 mmHg 86%
    02:00 +12°C° 0 mm 2 m/S 737 mmHg 86%
    03:00 +10°C° 0 mm 2 m/S 737 mmHg 86%
    04:00 +10°C° 0 mm 2 m/S 737 mmHg 85%
    05:00 +10°C° 0 mm 2 m/S 737 mmHg 85%
    06:00 +13°C° 0 mm 2 m/S 737 mmHg 79%
    07:00 +16°C° 0 mm 2 m/S 737 mmHg 73%
    08:00 +19°C° 0 mm 1 m/S 738 mmHg 66%
    09:00 +19°C° 0 mm 2 m/S 738 mmHg 60%
    10:00 +21°C° 0 mm 2 m/S 738 mmHg 55%
    11:00 +23°C° 0 mm 2 m/S 738 mmHg 49%
    12:00 +23°C° 0.4 mm 2 m/S 737 mmHg 52%
    13:00 +23°C° 0.4 mm 1 m/S 737 mmHg 56%
    14:00 +23°C° 0.4 mm 1 m/S 737 mmHg 59%
    15:00 +23°C° 0.9 mm 1 m/S 736 mmHg 63%
    16:00 +22°C° 0.9 mm 1 m/S 736 mmHg 67%
    17:00 +22°C° 0.9 mm 1 m/S 736 mmHg 71%
    18:00 +20°C° 0.4 mm 1 m/S 736 mmHg 74%
    19:00 +19°C° 0.4 mm 1 m/S 736 mmHg 78%
    20:00 +17°C° 0.4 mm 2 m/S 736 mmHg 81%
    21:00 +16°C° 0.3 mm 2 m/S 736 mmHg 82%
    22:00 +16°C° 0.3 mm 2 m/S 736 mmHg 83%
    23:00 +15°C° 0.3 mm 1 m/S 736 mmHg 85%

    31 Mai, Sonntag

    Zeit Temperatur Niederschläge Wind Luftdruck Luftfeuchtigkeit
    00:00 +15°C° 0.2 mm 1 m/S 736 mmHg 85%
    01:00 +14°C° 0.2 mm 2 m/S 736 mmHg 85%
    02:00 +14°C° 0.2 mm 2 m/S 736 mmHg 85%
    03:00 +14°C° 0 mm 2 m/S 736 mmHg 85%
    04:00 +13°C° 0 mm 2 m/S 736 mmHg 86%
    05:00 +13°C° 0 mm 2 m/S 736 mmHg 86%
    06:00 +15°C° 0 mm 2 m/S 736 mmHg 82%
    07:00 +16°C° 0 mm 1 m/S 736 mmHg 79%
    08:00 +19°C° 0 mm 1 m/S 736 mmHg 75%
    09:00 +20°C° 0.4 mm 1 m/S 736 mmHg 73%
    10:00 +21°C° 0.4 mm 1 m/S 736 mmHg 71%
    11:00 +20°C° 0.4 mm 2 m/S 736 mmHg 68%
    12:00 +21°C° 0.7 mm 2 m/S 735 mmHg 66%
    13:00 +21°C° 0.7 mm 2 m/S 735 mmHg 64%
    14:00 +23°C° 0.7 mm 2 m/S 735 mmHg 62%
    15:00 +23°C° 0.8 mm 2 m/S 734 mmHg 64%
    16:00 +21°C° 0.8 mm 2 m/S 734 mmHg 67%
    17:00 +21°C° 0.8 mm 2 m/S 734 mmHg 70%
    18:00 +20°C° 0.7 mm 1 m/S 734 mmHg 75%
    19:00 +19°C° 0.7 mm 1 m/S 734 mmHg 80%
    20:00 +16°C° 0.7 mm 1 m/S 734 mmHg 85%
    21:00 +16°C° 0.3 mm 1 m/S 734 mmHg 86%
    22:00 +15°C° 0.3 mm 1 m/S 734 mmHg 88%
    23:00 +14°C° 0.3 mm 1 m/S 735 mmHg 90%

    1 Juni, Montag

    Zeit Temperatur Niederschläge Wind Luftdruck Luftfeuchtigkeit
    00:00 +14°C° 0.1 mm 1 m/S 734 mmHg 90%
    01:00 +14°C° 0.1 mm 1 m/S 734 mmHg 90%
    02:00 +13°C° 0.1 mm 1 m/S 734 mmHg 91%
    03:00 +13°C° 0 mm 1 m/S 734 mmHg 90%
    04:00 +13°C° 0 mm 1 m/S 734 mmHg 89%
    05:00 +12°C° 0 mm 1 m/S 734 mmHg 89%
    06:00 +14°C° 0 mm 1 m/S 734 mmHg 84%
    07:00 +15°C° 0 mm 1 m/S 734 mmHg 79%
    08:00 +18°C° 0 mm 1 m/S 734 mmHg 74%
    09:00 +18°C° 0.1 mm 2 m/S 734 mmHg 67%
    10:00 +19°C° 0.1 mm 2 m/S 734 mmHg 61%
    11:00 +21°C° 0.1 mm 2 m/S 734 mmHg 54%
    12:00 +21°C° 0.1 mm 2 m/S 734 mmHg 54%
    13:00 +23°C° 0.1 mm 1 m/S 734 mmHg 53%
    14:00 +23°C° 0.1 mm 1 m/S 733 mmHg 53%
    15:00 +23°C° 0.4 mm 1 m/S 733 mmHg 59%
    16:00 +21°C° 0.4 mm 2 m/S 733 mmHg 65%
    17:00 +20°C° 0.4 mm 2 m/S 733 mmHg 71%
    18:00 +20°C° 0.5 mm 1 m/S 733 mmHg 75%
    19:00 +18°C° 0.5 mm 1 m/S 733 mmHg 79%
    20:00 +16°C° 0.5 mm 1 m/S 733 mmHg 83%
    21:00 +15°C° 0.1 mm 1 m/S 733 mmHg 85%
    22:00 +14°C° 0.1 mm 1 m/S 733 mmHg 86%
    23:00 +14°C° 0.1 mm 1 m/S 734 mmHg 87%

    2 Juni, Dienstag

    Zeit Temperatur Niederschläge Wind Luftdruck Luftfeuchtigkeit
    00:00 +13°C° 0 mm 1 m/S 734 mmHg 87%
    01:00 +13°C° 0 mm 1 m/S 733 mmHg 87%
    02:00 +13°C° 0 mm 1 m/S 733 mmHg 87%
    03:00 +13°C° 0 mm 1 m/S 733 mmHg 88%
    04:00 +13°C° 0 mm 1 m/S 733 mmHg 88%
    05:00 +12°C° 0 mm 1 m/S 733 mmHg 88%
    06:00 +14°C° 0 mm 1 m/S 733 mmHg 85%
    07:00 +16°C° 0 mm 1 m/S 734 mmHg 81%
    08:00 +18°C° 0 mm 1 m/S 734 mmHg 77%
    09:00 +19°C° 0.3 mm 1 m/S 734 mmHg 73%
    10:00 +21°C° 0.3 mm 1 m/S 734 mmHg 68%
    11:00 +22°C° 0.3 mm 1 m/S 734 mmHg 64%
    12:00 +22°C° 0.6 mm 1 m/S 734 mmHg 67%
    13:00 +22°C° 0.6 mm 1 m/S 734 mmHg 69%
    14:00 +22°C° 0.6 mm 1 m/S 734 mmHg 71%
    15:00 +22°C° 1.2 mm 1 m/S 733 mmHg 73%
    16:00 +22°C° 1.2 mm 1 m/S 733 mmHg 75%
    17:00 +22°C° 1.2 mm 1 m/S 733 mmHg 77%
    18:00 +20°C° 1 mm 1 m/S 733 mmHg 81%
    19:00 +19°C° 1 mm 1 m/S 733 mmHg 85%
    20:00 +16°C° 1 mm 0 m/S 733 mmHg 88%
    21:00 +16°C° 0.4 mm 1 m/S 733 mmHg 88%
    22:00 +16°C° 0.4 mm 1 m/S 733 mmHg 88%
    23:00 +15°C° 0.4 mm 1 m/S 734 mmHg 88%
    Mehr zeigen